owner,sensor,date,latitude,longitude,vertical_datum,mass_concentration_of_oxygen_in_sea_water,qcFlag 
SCCF RECON,ioos:station:SCCF:53:1,2012-01-01T00:00:00Z,26.6493,-81.8810,2.326,6.3,1111122 
SCCF RECON,ioos:station:SCCF:53:1,2012-01-01T01:00:00Z,26.6493,-81.8810,2.37,6.14,1111122 
SCCF RECON,ioos:station:SCCF:53:1,2012-01-01T02:00:00Z,26.6493,-81.8810,2.39,6.13,1111122 
SCCF RECON,ioos:station:SCCF:53:1,2012-01-01T03:00:00Z,26.6493,-81.8810,2.37,6.27,1111122 
SCCF RECON,ioos:station:SCCF:53:1,2012-01-01T04:00:00Z,26.6493,-81.8810,2.329,6.13,1111122 
SCCF RECON,ioos:station:SCCF:53:1,2012-01-01T05:00:00Z,26.6493,-81.8810,2.284,6.18,1111122 
SCCF RECON,ioos:station:SCCF:53:1,2012-01-01T06:00:00Z,26.6493,-81.8810,2.236,6.1,1111122 
SCCF RECON,ioos:station:SCCF:53:1,2012-01-01T07:00:00Z,26.6493,-81.8810,2.2,5.96,1111122 
SCCF RECON,ioos:station:SCCF:53:1,2012-01-01T08:00:00Z,26.6493,-81.8810,2.16,5.89,1111122 
SCCF RECON,ioos:station:SCCF:53:1,2012-01-01T09:00:00Z,26.6493,-81.8810,2.13,5.8,1111122 
SCCF RECON,ioos:station:SCCF:53:1,2012-01-01T10:00:00Z,26.6493,-81.8810,2.14,5.74,1111122 
SCCF RECON,ioos:station:SCCF:53:1,2012-01-01T11:00:00Z,26.6493,-81.8810,2.18,5.66,1111122 
SCCF RECON,ioos:station:SCCF:53:1,2012-01-01T12:00:00Z,26.6493,-81.8810,2.22,5.94,1111122 
SCCF RECON,ioos:station:SCCF:53:1,2012-01-01T13:00:00Z,26.6493,-81.8810,2.25,5.95,1111122 
SCCF RECON,ioos:station:SCCF:53:1,2012-01-01T14:00:00Z,26.6493,-81.8810,2.277,5.95,1111122 
SCCF RECON,ioos:station:SCCF:53:1,2012-01-01T15:00:00Z,26.6493,-81.8810,2.268,5.76,1111122 
SCCF RECON,ioos:station:SCCF:53:1,2012-01-01T16:00:00Z,26.6493,-81.8810,2.23,5.67,1111122 
SCCF RECON,ioos:station:SCCF:53:1,2012-01-01T17:00:00Z,26.6493,-81.8810,2.191,5.66,1111122 
SCCF RECON,ioos:station:SCCF:53:1,2012-01-01T18:00:00Z,26.6493,-81.8810,2.158,5.84,1111122 
SCCF RECON,ioos:station:SCCF:53:1,2012-01-01T19:00:00Z,26.6493,-81.8810,2.131,6.24,1111122 
SCCF RECON,ioos:station:SCCF:53:1,2012-01-01T20:00:00Z,26.6493,-81.8810,2.121,6.2,1111122 
SCCF RECON,ioos:station:SCCF:53:1,2012-01-01T21:00:00Z,26.6493,-81.8810,2.138,6.04,1111122 
SCCF RECON,ioos:station:SCCF:53:1,2012-01-01T22:00:00Z,26.6493,-81.8810,2.187,5.96,1111122 
SCCF RECON,ioos:station:SCCF:53:1,2012-01-01T23:00:00Z,26.6493,-81.8810,2.234,5.78,1111122 
SCCF RECON,ioos:station:SCCF:53:1,2012-01-02T00:00:00Z,26.6493,-81.8810,2.281,5.85,1111122 
SCCF RECON,ioos:station:SCCF:53:1,2012-01-02T01:00:00Z,26.6493,-81.8810,2.33,5.8,1111122 
SCCF RECON,ioos:station:SCCF:53:1,2012-01-02T02:00:00Z,26.6493,-81.8810,2.36,5.73,1111122 
SCCF RECON,ioos:station:SCCF:53:1,2012-01-02T03:00:00Z,26.6493,-81.8810,2.36,5.73,1111122 
SCCF RECON,ioos:station:SCCF:53:1,2012-01-02T04:00:00Z,26.6493,-81.8810,2.33,5.79,1111122 
SCCF RECON,ioos:station:SCCF:53:1,2012-01-02T05:00:00Z,26.6493,-81.8810,2.27,5.89,1111122 
SCCF RECON,ioos:station:SCCF:53:1,2012-01-02T06:00:00Z,26.6493,-81.8810,2.22,5.26,1111122 
SCCF RECON,ioos:station:SCCF:53:1,2012-01-02T07:00:00Z,26.6493,-81.8810,2.17,5.2,1111122 
SCCF RECON,ioos:station:SCCF:53:1,2012-01-02T08:00:00Z,26.6493,-81.8810,2.125,5.37,1111122 
SCCF RECON,ioos:station:SCCF:53:1,2012-01-02T09:00:00Z,26.6493,-81.8810,2.087,5.54,1111122 
SCCF RECON,ioos:station:SCCF:53:1,2012-01-02T10:00:00Z,26.6493,-81.8810,2.05,5.51,1111122 
SCCF RECON,ioos:station:SCCF:53:1,2012-01-02T11:00:00Z,26.6493,-81.8810,2.04,5.21,1111122 
SCCF RECON,ioos:station:SCCF:53:1,2012-01-02T12:00:00Z,26.6493,-81.8810,2.073,5.44,1111122 
SCCF RECON,ioos:station:SCCF:53:1,2012-01-02T13:00:00Z,26.6493,-81.8810,2.11,5.27,1111122 
SCCF RECON,ioos:station:SCCF:53:1,2012-01-02T14:00:00Z,26.6493,-81.8810,2.14,5.22,1111122 
SCCF RECON,ioos:station:SCCF:53:1,2012-01-02T15:00:00Z,26.6493,-81.8810,2.17,5.18,1111122 
SCCF RECON,ioos:station:SCCF:53:1,2012-01-02T16:00:00Z,26.6493,-81.8810,2.187,5.17,1111122 
SCCF RECON,ioos:station:SCCF:53:1,2012-01-02T17:00:00Z,26.6493,-81.8810,2.189,5.52,1111122 
SCCF RECON,ioos:station:SCCF:53:1,2012-01-02T18:00:00Z,26.6493,-81.8810,2.192,5.18,1111122 
SCCF RECON,ioos:station:SCCF:53:1,2012-01-02T19:00:00Z,26.6493,-81.8810,2.159,5.12,1111122 
SCCF RECON,ioos:station:SCCF:53:1,2012-01-02T20:00:00Z,26.6493,-81.8810,2.15,5.26,1111122 
SCCF RECON,ioos:station:SCCF:53:1,2012-01-02T21:00:00Z,26.6493,-81.8810,1.0,-9999.0,1111122 
SCCF RECON,ioos:station:SCCF:53:1,2012-01-02T22:00:00Z,26.6493,-81.8810,2.159,6.07,1111122 
SCCF RECON,ioos:station:SCCF:53:1,2012-01-02T23:00:00Z,26.6493,-81.8810,2.152,6.99,1111122 
SCCF RECON,ioos:station:SCCF:53:1,2012-01-03T00:00:00Z,26.6493,-81.8810,1.0,-9999.0,1111122 
SCCF RECON,ioos:station:SCCF:53:1,2012-01-03T01:00:00Z,26.6493,-81.8810,2.192,6.45,1111122 
SCCF RECON,ioos:station:SCCF:53:1,2012-01-03T02:00:00Z,26.6493,-81.8810,1.0,-9999.0,1111122 
SCCF RECON,ioos:station:SCCF:53:1,2012-01-03T03:00:00Z,26.6493,-81.8810,2.19,7.27,1111122 
SCCF RECON,ioos:station:SCCF:53:1,2012-01-03T04:00:00Z,26.6493,-81.8810,1.0,-9999.0,1111122 
SCCF RECON,ioos:station:SCCF:53:1,2012-01-03T05:00:00Z,26.6493,-81.8810,2.134,7.14,1111122 
SCCF RECON,ioos:station:SCCF:53:1,2012-01-03T06:00:00Z,26.6493,-81.8810,1.0,-9999.0,1111122 
SCCF RECON,ioos:station:SCCF:53:1,2012-01-03T07:00:00Z,26.6493,-81.8810,1.0,-9999.0,1111122 
SCCF RECON,ioos:station:SCCF:53:1,2012-01-03T08:00:00Z,26.6493,-81.8810,2.03,4.72,1111122 
SCCF RECON,ioos:station:SCCF:53:1,2012-01-03T09:00:00Z,26.6493,-81.8810,1.0,-9999.0,1111122 
SCCF RECON,ioos:station:SCCF:53:1,2012-01-03T10:00:00Z,26.6493,-81.8810,1.96,4.62,1111122 
SCCF RECON,ioos:station:SCCF:53:1,2012-01-03T11:00:00Z,26.6493,-81.8810,1.0,-9999.0,1111122 
SCCF RECON,ioos:station:SCCF:53:1,2012-01-03T12:00:00Z,26.6493,-81.8810,1.911,6.67,1111122 
SCCF RECON,ioos:station:SCCF:53:1,2012-01-03T13:00:00Z,26.6493,-81.8810,1.0,-9999.0,1111122 
SCCF RECON,ioos:station:SCCF:53:1,2012-01-03T14:00:00Z,26.6493,-81.8810,1.0,-9999.0,1111122 
SCCF RECON,ioos:station:SCCF:53:1,2012-01-03T15:00:00Z,26.6493,-81.8810,1.0,-9999.0,1111122 
SCCF RECON,ioos:station:SCCF:53:1,2012-01-03T16:00:00Z,26.6493,-81.8810,1.0,-9999.0,1111122 
SCCF RECON,ioos:station:SCCF:53:1,2012-01-03T17:00:00Z,26.6493,-81.8810,1.0,-9999.0,1111122 
SCCF RECON,ioos:station:SCCF:53:1,2012-01-03T18:00:00Z,26.6493,-81.8810,1.0,-9999.0,1111122 
SCCF RECON,ioos:station:SCCF:53:1,2012-01-03T19:00:00Z,26.6493,-81.8810,1.0,-9999.0,1111122 
SCCF RECON,ioos:station:SCCF:53:1,2012-01-03T20:00:00Z,26.6493,-81.8810,1.0,-9999.0,1111122 
SCCF RECON,ioos:station:SCCF:53:1,2012-01-03T21:00:00Z,26.6493,-81.8810,1.0,-9999.0,1111122 
SCCF RECON,ioos:station:SCCF:53:1,2012-01-03T22:00:00Z,26.6493,-81.8810,1.0,-9999.0,1111122 
SCCF RECON,ioos:station:SCCF:53:1,2012-01-03T23:00:00Z,26.6493,-81.8810,1.0,-9999.0,1111122 
SCCF RECON,ioos:station:SCCF:53:1,2012-01-04T00:00:00Z,26.6493,-81.8810,1.0,-9999.0,1111122 
SCCF RECON,ioos:station:SCCF:53:1,2012-01-04T01:00:00Z,26.6493,-81.8810,1.0,-9999.0,1111122 
SCCF RECON,ioos:station:SCCF:53:1,2012-01-04T02:00:00Z,26.6493,-81.8810,1.0,-9999.0,1111122 
SCCF RECON,ioos:station:SCCF:53:1,2012-01-04T03:00:00Z,26.6493,-81.8810,1.0,-9999.0,1111122 
SCCF RECON,ioos:station:SCCF:53:1,2012-01-04T04:00:00Z,26.6493,-81.8810,1.0,-9999.0,1111122 
SCCF RECON,ioos:station:SCCF:53:1,2012-01-04T05:00:00Z,26.6493,-81.8810,1.0,-9999.0,1111122 
SCCF RECON,ioos:station:SCCF:53:1,2012-01-04T06:00:00Z,26.6493,-81.8810,1.0,-9999.0,1111122 
SCCF RECON,ioos:station:SCCF:53:1,2012-01-04T07:00:00Z,26.6493,-81.8810,1.0,-9999.0,1111122 
SCCF RECON,ioos:station:SCCF:53:1,2012-01-04T08:00:00Z,26.6493,-81.8810,1.0,-9999.0,1111122 
SCCF RECON,ioos:station:SCCF:53:1,2012-01-04T09:00:00Z,26.6493,-81.8810,1.0,-9999.0,1111122 
SCCF RECON,ioos:station:SCCF:53:1,2012-01-04T10:00:00Z,26.6493,-81.8810,1.0,-9999.0,1111122 
SCCF RECON,ioos:station:SCCF:53:1,2012-01-04T11:00:00Z,26.6493,-81.8810,1.0,-9999.0,1111122 
SCCF RECON,ioos:station:SCCF:53:1,2012-01-04T12:00:00Z,26.6493,-81.8810,1.0,-9999.0,1111122 
SCCF RECON,ioos:station:SCCF:53:1,2012-01-04T13:00:00Z,26.6493,-81.8810,1.0,-9999.0,1111122 
SCCF RECON,ioos:station:SCCF:53:1,2012-01-04T14:00:00Z,26.6493,-81.8810,1.0,-9999.0,1111122 
SCCF RECON,ioos:station:SCCF:53:1,2012-01-04T15:00:00Z,26.6493,-81.8810,1.0,-9999.0,1111122 
SCCF RECON,ioos:station:SCCF:53:1,2012-01-04T16:00:00Z,26.6493,-81.8810,1.0,-9999.0,1111122 
SCCF RECON,ioos:station:SCCF:53:1,2012-01-04T17:00:00Z,26.6493,-81.8810,1.0,-9999.0,1111122 
SCCF RECON,ioos:station:SCCF:53:1,2012-01-04T18:00:00Z,26.6493,-81.8810,1.0,-9999.0,1111122 
SCCF RECON,ioos:station:SCCF:53:1,2012-01-04T19:00:00Z,26.6493,-81.8810,1.0,-9999.0,1111122 
SCCF RECON,ioos:station:SCCF:53:1,2012-01-04T20:00:00Z,26.6493,-81.8810,1.0,-9999.0,1111122 
SCCF RECON,ioos:station:SCCF:53:1,2012-01-04T21:00:00Z,26.6493,-81.8810,1.0,-9999.0,1111122 
SCCF RECON,ioos:station:SCCF:53:1,2012-01-04T22:00:00Z,26.6493,-81.8810,1.0,-9999.0,1111122 
SCCF RECON,ioos:station:SCCF:53:1,2012-01-04T23:00:00Z,26.6493,-81.8810,1.0,-9999.0,1111122 
SCCF RECON,ioos:station:SCCF:53:1,2012-01-05T00:00:00Z,26.6493,-81.8810,1.0,-9999.0,1111122 
SCCF RECON,ioos:station:SCCF:53:1,2012-01-05T01:00:00Z,26.6493,-81.8810,1.0,-9999.0,1111122 
SCCF RECON,ioos:station:SCCF:53:1,2012-01-05T02:00:00Z,26.6493,-81.8810,1.0,-9999.0,1111122 
SCCF RECON,ioos:station:SCCF:53:1,2012-01-05T03:00:00Z,26.6493,-81.8810,1.0,-9999.0,1111122 
SCCF RECON,ioos:station:SCCF:53:1,2012-01-05T04:00:00Z,26.6493,-81.8810,1.0,-9999.0,1111122 
SCCF RECON,ioos:station:SCCF:53:1,2012-01-05T05:00:00Z,26.6493,-81.8810,1.0,-9999.0,1111122 
SCCF RECON,ioos:station:SCCF:53:1,2012-01-05T06:00:00Z,26.6493,-81.8810,1.0,-9999.0,1111122 
SCCF RECON,ioos:station:SCCF:53:1,2012-01-05T07:00:00Z,26.6493,-81.8810,1.0,-9999.0,1111122 
SCCF RECON,ioos:station:SCCF:53:1,2012-01-05T08:00:00Z,26.6493,-81.8810,1.0,-9999.0,1111122 
SCCF RECON,ioos:station:SCCF:53:1,2012-01-05T09:00:00Z,26.6493,-81.8810,1.0,-9999.0,1111122 
SCCF RECON,ioos:station:SCCF:53:1,2012-01-05T10:00:00Z,26.6493,-81.8810,1.0,-9999.0,1111122 
SCCF RECON,ioos:station:SCCF:53:1,2012-01-05T11:00:00Z,26.6493,-81.8810,1.0,-9999.0,1111122 
SCCF RECON,ioos:station:SCCF:53:1,2012-01-05T12:00:00Z,26.6493,-81.8810,1.0,-9999.0,1111122 
SCCF RECON,ioos:station:SCCF:53:1,2012-01-05T13:00:00Z,26.6493,-81.8810,1.0,-9999.0,1111122 
SCCF RECON,ioos:station:SCCF:53:1,2012-01-05T14:00:00Z,26.6493,-81.8810,1.0,-9999.0,1111122 
SCCF RECON,ioos:station:SCCF:53:1,2012-01-05T15:00:00Z,26.6493,-81.8810,1.0,-9999.0,1111122 
SCCF RECON,ioos:station:SCCF:53:1,2012-01-05T16:00:00Z,26.6493,-81.8810,1.0,-9999.0,1111122 
SCCF RECON,ioos:station:SCCF:53:1,2012-01-05T17:00:00Z,26.6493,-81.8810,1.0,-9999.0,1111122 
SCCF RECON,ioos:station:SCCF:53:1,2012-01-05T18:00:00Z,26.6493,-81.8810,1.0,-9999.0,1111122 
SCCF RECON,ioos:station:SCCF:53:1,2012-01-05T19:00:00Z,26.6493,-81.8810,1.0,-9999.0,1111122 
SCCF RECON,ioos:station:SCCF:53:1,2012-01-05T20:00:00Z,26.6493,-81.8810,1.0,-9999.0,1111122 
SCCF RECON,ioos:station:SCCF:53:1,2012-01-05T21:00:00Z,26.6493,-81.8810,1.0,-9999.0,1111122 
SCCF RECON,ioos:station:SCCF:53:1,2012-01-05T22:00:00Z,26.6493,-81.8810,1.0,-9999.0,1111122 
SCCF RECON,ioos:station:SCCF:53:1,2012-01-05T23:00:00Z,26.6493,-81.8810,1.0,-9999.0,1111122 
SCCF RECON,ioos:station:SCCF:53:1,2012-01-12T20:00:00Z,26.6493,-81.8810,2.29,7.43,1111122 
SCCF RECON,ioos:station:SCCF:53:1,2012-01-12T21:00:00Z,26.6493,-81.8810,2.342,7.28,1111122 
SCCF RECON,ioos:station:SCCF:53:1,2012-01-12T22:00:00Z,26.6493,-81.8810,2.4,7.84,1111122 
SCCF RECON,ioos:station:SCCF:53:1,2012-01-12T23:00:00Z,26.6493,-81.8810,2.43,8.28,1111122 
SCCF RECON,ioos:station:SCCF:53:1,2012-01-13T00:00:00Z,26.6493,-81.8810,2.42,8.3,1111122 
SCCF RECON,ioos:station:SCCF:53:1,2012-01-13T01:00:00Z,26.6493,-81.8810,2.362,8.03,1111122 
SCCF RECON,ioos:station:SCCF:53:1,2012-01-13T02:00:00Z,26.6493,-81.8810,2.32,7.7,1111122 
SCCF RECON,ioos:station:SCCF:53:1,2012-01-13T03:00:00Z,26.6493,-81.8810,2.267,7.67,1111122 
SCCF RECON,ioos:station:SCCF:53:1,2012-01-13T04:00:00Z,26.6493,-81.8810,2.224,7.52,1111122 
SCCF RECON,ioos:station:SCCF:53:1,2012-01-13T05:00:00Z,26.6493,-81.8810,2.2,7.47,1111122 
SCCF RECON,ioos:station:SCCF:53:1,2012-01-13T06:00:00Z,26.6493,-81.8810,2.25,7.01,1111122 
SCCF RECON,ioos:station:SCCF:53:1,2012-01-13T07:00:00Z,26.6493,-81.8810,2.317,7.23,1111122 
SCCF RECON,ioos:station:SCCF:53:1,2012-01-13T08:00:00Z,26.6493,-81.8810,2.36,7.14,1111122 
SCCF RECON,ioos:station:SCCF:53:1,2012-01-13T09:00:00Z,26.6493,-81.8810,2.43,6.63,1111122 
SCCF RECON,ioos:station:SCCF:53:1,2012-01-13T10:00:00Z,26.6493,-81.8810,2.49,6.86,1111122 
SCCF RECON,ioos:station:SCCF:53:1,2012-01-13T11:00:00Z,26.6493,-81.8810,2.51,6.41,1111122 
SCCF RECON,ioos:station:SCCF:53:1,2012-01-13T12:00:00Z,26.6493,-81.8810,2.47,7.8,1111122 
SCCF RECON,ioos:station:SCCF:53:1,2012-01-13T13:00:00Z,26.6493,-81.8810,2.41,7.6,1111122 
SCCF RECON,ioos:station:SCCF:53:1,2012-01-13T14:00:00Z,26.6493,-81.8810,2.36,7.27,1111122 
SCCF RECON,ioos:station:SCCF:53:1,2012-01-13T15:00:00Z,26.6493,-81.8810,2.313,7.17,1111122 
SCCF RECON,ioos:station:SCCF:53:1,2012-01-13T16:00:00Z,26.6493,-81.8810,2.25,7.18,1111122 
SCCF RECON,ioos:station:SCCF:53:1,2012-01-13T17:00:00Z,26.6493,-81.8810,2.19,7.16,1111122 
SCCF RECON,ioos:station:SCCF:53:1,2012-01-13T18:00:00Z,26.6493,-81.8810,2.149,6.3,1111122 
SCCF RECON,ioos:station:SCCF:53:1,2012-01-13T19:00:00Z,26.6493,-81.8810,2.148,6.75,1111122 
SCCF RECON,ioos:station:SCCF:53:1,2012-01-13T20:00:00Z,26.6493,-81.8810,2.205,6.74,1111122 
SCCF RECON,ioos:station:SCCF:53:1,2012-01-13T21:00:00Z,26.6493,-81.8810,2.25,6.78,1111122 
SCCF RECON,ioos:station:SCCF:53:1,2012-01-13T22:00:00Z,26.6493,-81.8810,2.3,6.69,1111122 
SCCF RECON,ioos:station:SCCF:53:1,2012-01-13T23:00:00Z,26.6493,-81.8810,2.349,6.57,1111122 
SCCF RECON,ioos:station:SCCF:53:1,2012-01-14T00:00:00Z,26.6493,-81.8810,2.35,6.76,1111122 
SCCF RECON,ioos:station:SCCF:53:1,2012-01-14T01:00:00Z,26.6493,-81.8810,2.3,7.53,1111122 
SCCF RECON,ioos:station:SCCF:53:1,2012-01-14T02:00:00Z,26.6493,-81.8810,2.26,7.13,1111122 
SCCF RECON,ioos:station:SCCF:53:1,2012-01-14T03:00:00Z,26.6493,-81.8810,2.224,6.96,1111122 
SCCF RECON,ioos:station:SCCF:53:1,2012-01-14T04:00:00Z,26.6493,-81.8810,2.178,6.57,1111122 
SCCF RECON,ioos:station:SCCF:53:1,2012-01-14T05:00:00Z,26.6493,-81.8810,2.14,6.41,1111122 
SCCF RECON,ioos:station:SCCF:53:1,2012-01-14T06:00:00Z,26.6493,-81.8810,2.1,6.57,1111122 
SCCF RECON,ioos:station:SCCF:53:1,2012-01-14T07:00:00Z,26.6493,-81.8810,2.09,6.19,1111122 
SCCF RECON,ioos:station:SCCF:53:1,2012-01-14T08:00:00Z,26.6493,-81.8810,2.12,6.7,1111122 
SCCF RECON,ioos:station:SCCF:53:1,2012-01-14T09:00:00Z,26.6493,-81.8810,2.16,6.5,1111122 
SCCF RECON,ioos:station:SCCF:53:1,2012-01-14T10:00:00Z,26.6493,-81.8810,2.2,6.54,1111122 
SCCF RECON,ioos:station:SCCF:53:1,2012-01-14T11:00:00Z,26.6493,-81.8810,2.23,6.5,1111122 
SCCF RECON,ioos:station:SCCF:53:1,2012-01-14T12:00:00Z,26.6493,-81.8810,2.221,6.34,1111122 
SCCF RECON,ioos:station:SCCF:53:1,2012-01-14T13:00:00Z,26.6493,-81.8810,2.182,7.32,1111122 
SCCF RECON,ioos:station:SCCF:53:1,2012-01-14T14:00:00Z,26.6493,-81.8810,2.15,6.93,1111122 
SCCF RECON,ioos:station:SCCF:53:1,2012-01-14T15:00:00Z,26.6493,-81.8810,2.11,7.26,1111122 
SCCF RECON,ioos:station:SCCF:53:1,2012-01-14T16:00:00Z,26.6493,-81.8810,2.068,7.29,1111122 
SCCF RECON,ioos:station:SCCF:53:1,2012-01-14T17:00:00Z,26.6493,-81.8810,2.021,7.56,1111122 
SCCF RECON,ioos:station:SCCF:53:1,2012-01-14T18:00:00Z,26.6493,-81.8810,1.983,7.65,1111122 
SCCF RECON,ioos:station:SCCF:53:1,2012-01-14T19:00:00Z,26.6493,-81.8810,1.96,7.77,1111122 
SCCF RECON,ioos:station:SCCF:53:1,2012-01-14T20:00:00Z,26.6493,-81.8810,2.01,7.87,1111122 
SCCF RECON,ioos:station:SCCF:53:1,2012-01-14T21:00:00Z,26.6493,-81.8810,2.05,8.14,1111122 
SCCF RECON,ioos:station:SCCF:53:1,2012-01-14T22:00:00Z,26.6493,-81.8810,2.101,8.25,1111122 
SCCF RECON,ioos:station:SCCF:53:1,2012-01-14T23:00:00Z,26.6493,-81.8810,2.15,7.99,1111122 
SCCF RECON,ioos:station:SCCF:53:1,2012-01-15T00:00:00Z,26.6493,-81.8810,2.19,8.12,1111122 
SCCF RECON,ioos:station:SCCF:53:1,2012-01-15T01:00:00Z,26.6493,-81.8810,2.22,7.99,1111122 
SCCF RECON,ioos:station:SCCF:53:1,2012-01-15T02:00:00Z,26.6493,-81.8810,2.2,7.69,1111122 
SCCF RECON,ioos:station:SCCF:53:1,2012-01-15T03:00:00Z,26.6493,-81.8810,2.16,8.02,1111122 
SCCF RECON,ioos:station:SCCF:53:1,2012-01-15T04:00:00Z,26.6493,-81.8810,2.13,7.9,1111122 
SCCF RECON,ioos:station:SCCF:53:1,2012-01-15T05:00:00Z,26.6493,-81.8810,2.09,7.79,1111122 
SCCF RECON,ioos:station:SCCF:53:1,2012-01-15T06:00:00Z,26.6493,-81.8810,2.05,7.71,1111122 
SCCF RECON,ioos:station:SCCF:53:1,2012-01-15T07:00:00Z,26.6493,-81.8810,2.03,7.67,1111122 
SCCF RECON,ioos:station:SCCF:53:1,2012-01-15T08:00:00Z,26.6493,-81.8810,2.02,7.51,1111122 
SCCF RECON,ioos:station:SCCF:53:1,2012-01-15T09:00:00Z,26.6493,-81.8810,2.05,7.62,1111122 
SCCF RECON,ioos:station:SCCF:53:1,2012-01-15T10:00:00Z,26.6493,-81.8810,2.09,7.55,1111122 
SCCF RECON,ioos:station:SCCF:53:1,2012-01-15T11:00:00Z,26.6493,-81.8810,2.12,7.47,1111122 
SCCF RECON,ioos:station:SCCF:53:1,2012-01-15T12:00:00Z,26.6493,-81.8810,2.163,4.09,1111122 
SCCF RECON,ioos:station:SCCF:53:1,2012-01-15T13:00:00Z,26.6493,-81.8810,2.19,7.51,1111122 
SCCF RECON,ioos:station:SCCF:53:1,2012-01-15T14:00:00Z,26.6493,-81.8810,2.18,7.52,1111122 
SCCF RECON,ioos:station:SCCF:53:1,2012-01-15T15:00:00Z,26.6493,-81.8810,2.149,7.46,1111122 
SCCF RECON,ioos:station:SCCF:53:1,2012-01-15T16:00:00Z,26.6493,-81.8810,2.11,7.22,1111122 
SCCF RECON,ioos:station:SCCF:53:1,2012-01-15T17:00:00Z,26.6493,-81.8810,2.06,7.44,1111122 
SCCF RECON,ioos:station:SCCF:53:1,2012-01-15T18:00:00Z,26.6493,-81.8810,2.011,7.4,1111122 
SCCF RECON,ioos:station:SCCF:53:1,2012-01-15T19:00:00Z,26.6493,-81.8810,1.977,7.85,1111122 
SCCF RECON,ioos:station:SCCF:53:1,2012-01-15T20:00:00Z,26.6493,-81.8810,1.98,8.1,1111122 
SCCF RECON,ioos:station:SCCF:53:1,2012-01-15T21:00:00Z,26.6493,-81.8810,2.038,8.08,1111122 
SCCF RECON,ioos:station:SCCF:53:1,2012-01-15T22:00:00Z,26.6493,-81.8810,2.09,8.37,1111122 
SCCF RECON,ioos:station:SCCF:53:1,2012-01-15T23:00:00Z,26.6493,-81.8810,2.14,8.5,1111122 
SCCF RECON,ioos:station:SCCF:53:1,2012-01-16T00:00:00Z,26.6493,-81.8810,2.21,8.46,1111122 
SCCF RECON,ioos:station:SCCF:53:1,2012-01-16T01:00:00Z,26.6493,-81.8810,2.26,8.31,1111122 
SCCF RECON,ioos:station:SCCF:53:1,2012-01-16T02:00:00Z,26.6493,-81.8810,2.28,8.21,1111122 
SCCF RECON,ioos:station:SCCF:53:1,2012-01-16T03:00:00Z,26.6493,-81.8810,2.278,8.04,1111122 
SCCF RECON,ioos:station:SCCF:53:1,2012-01-16T04:00:00Z,26.6493,-81.8810,2.24,8.23,1111122 
SCCF RECON,ioos:station:SCCF:53:1,2012-01-16T05:00:00Z,26.6493,-81.8810,2.199,8.03,1111122 
SCCF RECON,ioos:station:SCCF:53:1,2012-01-16T06:00:00Z,26.6493,-81.8810,2.15,8.11,1111122 
SCCF RECON,ioos:station:SCCF:53:1,2012-01-16T07:00:00Z,26.6493,-81.8810,2.106,7.85,1111122 
SCCF RECON,ioos:station:SCCF:53:1,2012-01-16T08:00:00Z,26.6493,-81.8810,2.06,8.08,1111122 
SCCF RECON,ioos:station:SCCF:53:1,2012-01-16T09:00:00Z,26.6493,-81.8810,2.03,8.15,1111122 
SCCF RECON,ioos:station:SCCF:53:1,2012-01-16T10:00:00Z,26.6493,-81.8810,2.01,8.05,1111122 
SCCF RECON,ioos:station:SCCF:53:1,2012-01-16T11:00:00Z,26.6493,-81.8810,2.01,7.98,1111122 
SCCF RECON,ioos:station:SCCF:53:1,2012-01-16T12:00:00Z,26.6493,-81.8810,2.03,8.01,1111122 
SCCF RECON,ioos:station:SCCF:53:1,2012-01-16T13:00:00Z,26.6493,-81.8810,2.07,8.0,1111122 
SCCF RECON,ioos:station:SCCF:53:1,2012-01-16T14:00:00Z,26.6493,-81.8810,2.1,7.94,1111122 
SCCF RECON,ioos:station:SCCF:53:1,2012-01-16T15:00:00Z,26.6493,-81.8810,2.113,8.06,1111122 
SCCF RECON,ioos:station:SCCF:53:1,2012-01-16T16:00:00Z,26.6493,-81.8810,2.1,8.02,1111122 
SCCF RECON,ioos:station:SCCF:53:1,2012-01-16T17:00:00Z,26.6493,-81.8810,2.05,7.95,1111122 
SCCF RECON,ioos:station:SCCF:53:1,2012-01-16T18:00:00Z,26.6493,-81.8810,2.019,8.29,1111122 
SCCF RECON,ioos:station:SCCF:53:1,2012-01-16T19:00:00Z,26.6493,-81.8810,2.01,8.36,1111122 
SCCF RECON,ioos:station:SCCF:53:1,2012-01-16T20:00:00Z,26.6493,-81.8810,2.008,8.44,1111122 
SCCF RECON,ioos:station:SCCF:53:1,2012-01-16T21:00:00Z,26.6493,-81.8810,2.05,8.65,1111122 
SCCF RECON,ioos:station:SCCF:53:1,2012-01-16T22:00:00Z,26.6493,-81.8810,2.1,8.58,1111122 
SCCF RECON,ioos:station:SCCF:53:1,2012-01-16T23:00:00Z,26.6493,-81.8810,2.15,8.81,1111122 
SCCF RECON,ioos:station:SCCF:53:1,2012-01-17T00:00:00Z,26.6493,-81.8810,2.213,8.64,1111122 
SCCF RECON,ioos:station:SCCF:53:1,2012-01-17T01:00:00Z,26.6493,-81.8810,2.276,8.27,1111122 
SCCF RECON,ioos:station:SCCF:53:1,2012-01-17T02:00:00Z,26.6493,-81.8810,2.32,8.11,1111122 
SCCF RECON,ioos:station:SCCF:53:1,2012-01-17T03:00:00Z,26.6493,-81.8810,2.32,8.13,1111122 
SCCF RECON,ioos:station:SCCF:53:1,2012-01-17T04:00:00Z,26.6493,-81.8810,2.28,8.21,1111122 
SCCF RECON,ioos:station:SCCF:53:1,2012-01-17T05:00:00Z,26.6493,-81.8810,2.23,8.29,1111122 
SCCF RECON,ioos:station:SCCF:53:1,2012-01-17T06:00:00Z,26.6493,-81.8810,2.18,8.07,1111122 
SCCF RECON,ioos:station:SCCF:53:1,2012-01-17T07:00:00Z,26.6493,-81.8810,2.125,7.83,1111122 
SCCF RECON,ioos:station:SCCF:53:1,2012-01-17T08:00:00Z,26.6493,-81.8810,2.081,7.75,1111122 
SCCF RECON,ioos:station:SCCF:53:1,2012-01-17T09:00:00Z,26.6493,-81.8810,2.04,7.69,1111122 
SCCF RECON,ioos:station:SCCF:53:1,2012-01-17T10:00:00Z,26.6493,-81.8810,2.005,7.67,1111122 
SCCF RECON,ioos:station:SCCF:53:1,2012-01-17T11:00:00Z,26.6493,-81.8810,2.0,7.72,1111122 
SCCF RECON,ioos:station:SCCF:53:1,2012-01-17T12:00:00Z,26.6493,-81.8810,2.04,7.61,1111122 
SCCF RECON,ioos:station:SCCF:53:1,2012-01-17T13:00:00Z,26.6493,-81.8810,2.08,7.61,1111122 
SCCF RECON,ioos:station:SCCF:53:1,2012-01-17T14:00:00Z,26.6493,-81.8810,2.12,7.62,1111122 
SCCF RECON,ioos:station:SCCF:53:1,2012-01-17T15:00:00Z,26.6493,-81.8810,2.161,7.67,1111122 
SCCF RECON,ioos:station:SCCF:53:1,2012-01-17T16:00:00Z,26.6493,-81.8810,2.197,8.02,1111122 
SCCF RECON,ioos:station:SCCF:53:1,2012-01-17T17:00:00Z,26.6493,-81.8810,2.21,8.05,1111122 
SCCF RECON,ioos:station:SCCF:53:1,2012-01-17T18:00:00Z,26.6493,-81.8810,2.22,7.78,1111122 
SCCF RECON,ioos:station:SCCF:53:1,2012-01-17T19:00:00Z,26.6493,-81.8810,2.213,7.83,1111122 
SCCF RECON,ioos:station:SCCF:53:1,2012-01-17T20:00:00Z,26.6493,-81.8810,2.208,8.11,1111122 
SCCF RECON,ioos:station:SCCF:53:1,2012-01-17T21:00:00Z,26.6493,-81.8810,2.213,8.08,1111122 
SCCF RECON,ioos:station:SCCF:53:1,2012-01-17T22:00:00Z,26.6493,-81.8810,2.261,8.37,1111122 
SCCF RECON,ioos:station:SCCF:53:1,2012-01-17T23:00:00Z,26.6493,-81.8810,2.31,8.46,1111122 
SCCF RECON,ioos:station:SCCF:53:1,2012-01-18T00:00:00Z,26.6493,-81.8810,2.36,8.61,1111122 
SCCF RECON,ioos:station:SCCF:53:1,2012-01-18T01:00:00Z,26.6493,-81.8810,2.413,8.11,1111122 
SCCF RECON,ioos:station:SCCF:53:1,2012-01-18T02:00:00Z,26.6493,-81.8810,2.44,7.89,1111122 
SCCF RECON,ioos:station:SCCF:53:1,2012-01-18T03:00:00Z,26.6493,-81.8810,2.45,7.55,1111122 
SCCF RECON,ioos:station:SCCF:53:1,2012-01-18T04:00:00Z,26.6493,-81.8810,2.43,7.77,1111122 
SCCF RECON,ioos:station:SCCF:53:1,2012-01-18T05:00:00Z,26.6493,-81.8810,2.38,7.83,1111122 
SCCF RECON,ioos:station:SCCF:53:1,2012-01-18T06:00:00Z,26.6493,-81.8810,2.321,7.73,1111122 
SCCF RECON,ioos:station:SCCF:53:1,2012-01-18T07:00:00Z,26.6493,-81.8810,2.26,7.65,1111122 
SCCF RECON,ioos:station:SCCF:53:1,2012-01-18T08:00:00Z,26.6493,-81.8810,2.2,7.67,1111122 
SCCF RECON,ioos:station:SCCF:53:1,2012-01-18T09:00:00Z,26.6493,-81.8810,2.149,7.65,1111122 
SCCF RECON,ioos:station:SCCF:53:1,2012-01-18T10:00:00Z,26.6493,-81.8810,2.09,7.56,1111122 
SCCF RECON,ioos:station:SCCF:53:1,2012-01-18T11:00:00Z,26.6493,-81.8810,2.05,7.49,1111122 
SCCF RECON,ioos:station:SCCF:53:1,2012-01-18T12:00:00Z,26.6493,-81.8810,2.03,7.58,1111122 
SCCF RECON,ioos:station:SCCF:53:1,2012-01-18T13:00:00Z,26.6493,-81.8810,2.051,7.53,1111122 
SCCF RECON,ioos:station:SCCF:53:1,2012-01-18T14:00:00Z,26.6493,-81.8810,2.094,7.49,1111122 
SCCF RECON,ioos:station:SCCF:53:1,2012-01-18T15:00:00Z,26.6493,-81.8810,2.14,7.6,1111122 